Location: Katowice
(50.2611°N, 19.0242°E)
Time: 01:04:57
(UTC+02:00)

Explorer 7 - Pass Details

Date: 25 August 2019
Orbit: 485 x 680 km, 50.3° (Epoch: 22 October)

Event Time Altitude Azimuth Distance (km) Brightness Sun altitude
Rises 10:02:50 0° 236° (SW) 3,012 10.4 38.3°
Reaches altitude 10° 10:05:15 10° 232° (SW) 2,086 9.7 38.6°
Maximum altitude 10:09:57 53° 156° (SSE) 797 9.1 39.2°
Drops below altitude 10° 10:14:27 10° 80° (E) 2,000 10.3 39.8°
Sets 10:16:44 0° 75° (ENE) 2,876 10.9 40.0°
